Weather History for Port Aransas, TX

Change the Weather History Date:

Wednesday, November 9, 2011

  Actual Average (KCRP) Record (KCRP)
Temperature  
Mean Temperature 66 °F 68 °F  
Max Temperature 73 °F 78 °F 90 °F (1979)
Min Temperature 59 °F 58 °F 34 °F (1991)
Degree Days  
Heating Degree Days 0 2  
Month to date heating degree days 13  
Since 1 July heating degree days 23  
Cooling Degree Days 1 5  
Month to date cooling degree days 52  
Year to date cooling degree days 3403  
Growing Degree Days 16 (Base 50)    
Moisture  
Dew Point 45 °F    
Average Humidity 50    
Maximum Humidity 63    
Minimum Humidity 35    
Precipitation  
Precipitation 0.01 in 0.08 in 2.19 in (1986)
Month to date precipitation 0.76  
Year to date precipitation 28.72  
Snow  
Snow 0.00 in - - ()
Month to date snowfall  
Since 1 July snowfall  
Since 1 September snowfall  
Snow Depth -    
Sea Level Pressure  
Sea Level Pressure 30.21 in    
Wind  
Wind Speed 18 mph (North)    
Max Wind Speed 25 mph    
Max Gust Speed 34 mph    
Visibility 10 miles    
Events Rain    
T = Trace of Precipitation, MM = Missing Value Source: NWS Daily Summary

Daily Weather History Graph

Daily Weather History Graph

Search for Another Location

Airport:

Trip Planner

Search our weather history database for the weather conditions in past years. The results will help you decide how hot, cold, wet, or windy it might be!

Date:

Astronomy

Nov. 09, 2011 Rise Set
Actual Time 6:44 AM CST 5:39 PM CST
Civil Twilight 6:20 AM CST 6:03 PM CST
Nautical Twilight 5:52 AM CST 6:31 PM CST
Astronomical Twilight 5:24 AM CST 6:59 PM CST
Moon 4:52 PM CST (11/9) 5:42 AM CST (11/9)
Length of Visible Light 11h 43m
Length of Day
10h 54m
Waxing Gibbous, 99% of the Moon is Illuminated
Nov 9
Waxing Gibbous
Nov 10
Full
Nov 18
Last Quarter
Nov 25
New
Dec 2
First Quarter

Hourly Weather History & Observations

Time (CST) Temp. Dew Point Humidity Pressure Visibility Wind Dir Wind Speed Gust Speed Precip Events Conditions
12:15 AM 73.4 °F 53.6 °F 50% 30.07 in 10.0 mi North 18.4 mph - N/A   Scattered Clouds
12:35 AM 73.4 °F 48.2 °F 41% 30.07 in 10.0 mi North 16.1 mph 20.7 mph N/A   Partly Cloudy
12:55 AM 71.6 °F 48.2 °F 43% 30.08 in 10.0 mi North 13.8 mph - N/A   Mostly Cloudy
1:35 AM 71.6 °F 46.4 °F 41% 30.08 in 10.0 mi North 13.8 mph - N/A   Mostly Cloudy
1:55 AM 69.8 °F 46.4 °F 43% 30.08 in 10.0 mi North 16.1 mph 20.7 mph N/A   Scattered Clouds
2:15 AM 69.8 °F 44.6 °F 40% 30.08 in 10.0 mi North 16.1 mph 21.9 mph N/A   Clear
2:35 AM 69.8 °F 44.6 °F 40% 30.08 in 10.0 mi North 15.0 mph 21.9 mph N/A   Clear
2:55 AM 69.8 °F 42.8 °F 38% 30.09 in 10.0 mi North 16.1 mph 25.3 mph N/A   Clear
3:15 AM 68.0 °F 42.8 °F 40% 30.10 in 10.0 mi North 12.7 mph - N/A   Clear
3:35 AM 68.0 °F 39.2 °F 35% 30.11 in 10.0 mi North 18.4 mph 24.2 mph N/A   Clear
3:55 AM 68.0 °F 41.0 °F 37% 30.11 in 10.0 mi North 17.3 mph - N/A   Clear
4:15 AM 66.2 °F 42.8 °F 43% 30.12 in 10.0 mi North 15.0 mph - N/A   Clear
4:35 AM 66.2 °F 39.2 °F 37% 30.12 in 10.0 mi North 20.7 mph 28.8 mph N/A   Partly Cloudy
4:55 AM 64.4 °F 41.0 °F 42% 30.13 in 10.0 mi North 17.3 mph 23.0 mph N/A   Clear
5:15 AM 64.4 °F 39.2 °F 40% 30.14 in 10.0 mi North 21.9 mph 27.6 mph N/A   Clear
5:55 AM 62.6 °F 41.0 °F 45% 30.16 in 10.0 mi North 21.9 mph 32.2 mph N/A   Clear
6:15 AM 60.8 °F 42.8 °F 52% 30.16 in 10.0 mi North 21.9 mph 32.2 mph N/A   Clear
6:35 AM 60.8 °F 44.6 °F 55% 30.18 in 10.0 mi North 21.9 mph 29.9 mph N/A   Clear
6:55 AM 60.8 °F 48.2 °F 63% 30.19 in 10.0 mi NNE 25.3 mph 32.2 mph N/A   Clear
7:15 AM 60.8 °F 48.2 °F 63% 30.21 in 10.0 mi NNE 23.0 mph 34.5 mph N/A   Clear
7:35 AM 60.8 °F 46.4 °F 59% 30.23 in 10.0 mi North 23.0 mph 31.1 mph N/A   Clear
7:55 AM 60.8 °F 46.4 °F 59% 30.24 in 10.0 mi North 24.2 mph 29.9 mph N/A   Clear
8:15 AM 62.6 °F 46.4 °F 55% 30.24 in 10.0 mi North 24.2 mph 31.1 mph N/A   Clear
8:55 AM 62.6 °F 48.2 °F 59% 30.25 in 10.0 mi North 25.3 mph 29.9 mph N/A   Clear
9:15 AM 62.6 °F 48.2 °F 59% 30.27 in 10.0 mi North 19.6 mph 26.5 mph N/A   Clear
9:35 AM 62.6 °F 46.4 °F 55% 30.27 in 10.0 mi North 19.6 mph - N/A   Clear
9:55 AM 64.4 °F 46.4 °F 52% 30.26 in 10.0 mi North 17.3 mph 24.2 mph N/A   Clear
10:15 AM 64.4 °F 46.4 °F 52% 30.27 in 10.0 mi North 19.6 mph 23.0 mph N/A   Clear
10:35 AM 64.4 °F 46.4 °F 52% 30.25 in 10.0 mi North 20.7 mph 26.5 mph N/A   Clear
10:55 AM 66.2 °F 46.4 °F 49% 30.26 in 10.0 mi North 20.7 mph - N/A   Clear
11:15 AM 66.2 °F 44.6 °F 46% 30.26 in 10.0 mi North 21.9 mph 25.3 mph N/A   Clear
11:35 AM 66.2 °F 44.6 °F 46% 30.25 in 10.0 mi North 19.6 mph - N/A   Clear
11:55 AM 66.2 °F 44.6 °F 46% 30.25 in 10.0 mi NNW 17.3 mph 21.9 mph N/A   Clear
12:15 PM 66.2 °F 42.8 °F 43% 30.24 in 10.0 mi NNW 16.1 mph - N/A   Clear
12:35 PM 66.2 °F 44.6 °F 46% 30.24 in 10.0 mi NNW 17.3 mph - N/A   Clear
1:15 PM 66.2 °F 42.8 °F 43% 30.22 in 10.0 mi NNW 15.0 mph 20.7 mph N/A   Mostly Cloudy
1:35 PM 66.2 °F 42.8 °F 43% 30.22 in 10.0 mi NNW 16.1 mph 23.0 mph N/A   Partly Cloudy
1:55 PM 66.2 °F 42.8 °F 43% 30.21 in 10.0 mi NNW 17.3 mph - N/A   Partly Cloudy
2:15 PM 66.2 °F 42.8 °F 43% 30.21 in 10.0 mi NNW 19.6 mph 24.2 mph N/A   Clear
2:35 PM 66.2 °F 42.8 °F 43% 30.21 in 10.0 mi NNW 18.4 mph - N/A   Partly Cloudy
2:55 PM 66.2 °F 42.8 °F 43% 30.21 in 10.0 mi NNW 17.3 mph 23.0 mph N/A   Partly Cloudy
3:15 PM 66.2 °F 42.8 °F 43% 30.21 in 10.0 mi NNW 17.3 mph 24.2 mph N/A   Scattered Clouds
3:35 PM 66.2 °F 42.8 °F 43% 30.21 in 10.0 mi NNW 17.3 mph - N/A   Mostly Cloudy
3:55 PM 62.6 °F 46.4 °F 55% 30.22 in 9.0 mi NNW 15.0 mph - N/A Rain Light Rain
4:15 PM 62.6 °F 46.4 °F 55% 30.24 in 10.0 mi NNW 13.8 mph 26.5 mph N/A Rain Light Rain
4:35 PM 62.6 °F 46.4 °F 55% 30.23 in 10.0 mi NNW 15.0 mph - N/A   Partly Cloudy
4:55 PM 64.4 °F 44.6 °F 49% 30.24 in 10.0 mi NNW 18.4 mph 24.2 mph N/A   Clear
5:15 PM 64.4 °F 44.6 °F 49% 30.24 in 9.0 mi NNW 18.4 mph 25.3 mph N/A Rain Light Rain
5:35 PM 60.8 °F 46.4 °F 59% 30.25 in 8.0 mi North 12.7 mph - N/A Rain Rain
5:55 PM 60.8 °F 48.2 °F 63% 30.26 in 10.0 mi NNW 13.8 mph - 0.01 in   Light Drizzle
6:15 PM 62.6 °F 48.2 °F 59% 30.27 in 10.0 mi NNW 19.6 mph 23.0 mph N/A Rain Light Rain
6:35 PM 60.8 °F 48.2 °F 63% 30.27 in 10.0 mi NNW 19.6 mph - N/A   Clear
6:55 PM 60.8 °F 46.4 °F 59% 30.27 in 10.0 mi North 15.0 mph 21.9 mph N/A   Clear
7:15 PM 60.8 °F 48.2 °F 63% 30.28 in 10.0 mi North 17.3 mph 23.0 mph N/A Rain Light Rain
7:35 PM 60.8 °F 48.2 °F 63% 30.31 in 10.0 mi NNW 19.6 mph 25.3 mph N/A Rain Light Rain
7:55 PM 59.0 °F 46.4 °F 63% 30.30 in 9.0 mi North 19.6 mph 26.5 mph N/A Rain Rain
8:15 PM 59.0 °F 46.4 °F 63% 30.31 in 10.0 mi North 20.7 mph 24.2 mph N/A   Scattered Clouds
8:35 PM 60.8 °F 46.4 °F 59% 30.32 in 10.0 mi North 16.1 mph 20.7 mph N/A   Partly Cloudy
8:55 PM 60.8 °F 44.6 °F 55% 30.32 in 10.0 mi North 18.4 mph 24.2 mph N/A   Partly Cloudy
9:15 PM 60.8 °F 44.6 °F 55% 30.34 in 10.0 mi North 19.6 mph 26.5 mph N/A   Scattered Clouds
9:35 PM 60.8 °F 44.6 °F 55% 30.34 in 10.0 mi North 26.5 mph 32.2 mph N/A Rain Light Rain
9:55 PM 57.2 °F 44.6 °F 63% 30.36 in 9.0 mi North 25.3 mph 35.7 mph N/A Rain Rain
10:15 PM 55.4 °F 46.4 °F 72% 30.35 in 9.0 mi North 20.7 mph 31.1 mph N/A Rain Heavy Rain
10:35 PM 55.4 °F 46.4 °F 72% 30.35 in 10.0 mi North 24.2 mph 32.2 mph 0.01 in Rain Light Rain
10:55 PM 55.4 °F 46.4 °F 72% 30.37 in 10.0 mi North 21.9 mph 28.8 mph 0.01 in   Clear
11:35 PM 55.4 °F 46.4 °F 72% 30.38 in 6.0 mi North 16.1 mph - N/A Rain Heavy Rain
11:55 PM 55.4 °F 46.4 °F 72% 30.39 in 10.0 mi North 20.7 mph 26.5 mph 0.01 in   Scattered Clouds